Flag for Mexico Weather past 2 weeks in Oaxaca, Oaxaca, Mexico

Now
81 °F

Partly sunny.


Feels Like: 80 °F
Forecast: N/A
Wind: 6 mph from Northeast

Location: Oaxaca / Xoxocotlan

Current Time: Jul 30, 2015 at 3:57:44 PM

Latest Report: Jul 30, 2015 at 2:45 PM


Visibility: 12 mi

Pressure: 30.23 "Hg (25.29 "Hg at 1566m altitude)

Humidity: 32%

Dew point: 48 °F

Location of OaxacaLocation

Historic Weather in Oaxaca — Graph

°F

Oaxaca temperature yesterday

Maximum temperature yesterday: 84 °F (at 3:45 PM)
Minimum temperature yesterday: 61 °F (at 5:45 AM)
Average temperature yesterday: 72 °F

Past Weeks' High & Low Weather Summary

 TemperatureHumidityPressure
High84 °F (Jul 24, 4:46 PM)100% (Jul 17, 2:58 AM)30.32 "Hg (Jul 17, 2:58 AM)
Low55 °F (Jul 28, 7:45 AM)22% (Jul 24, 4:46 PM)29.68 "Hg (Jul 15, 3:47 PM)
Average69 °F67%30.10 "Hg
* Reported Jul 15 2:45 PM — Jul 30 2:45 PM, Oaxaca, Weather by CustomWeather, © 2015

Note: Actual official high and low records may vary slightly from our data, if they occured in-between our weather recording intervals... More about our weather records

Advertising

Oaxaca weather history for previous 24 hours

 ConditionsComfort  
Time TempWeatherWind HumidityBarometerVisibility
2:45 PM
Thu, Jul 30
81 °FPartly sunny.6 mph32%30.23 "Hg12 mi
1:46 PM79 °FPartly sunny.6 mph34%30.25 "Hg10 mi
12:42 PM75 °FPartly sunny.3 mph41%29.90 "Hg10 mi
6:48 AM55 °FPartly cloudy.No wind82%29.93 "Hg7 mi
4:45 AM61 °FPartly cloudy.6 mph72%30.26 "Hg7 mi
3:58 AM61 °FPartly cloudy.6 mph72%30.26 "Hg7 mi
2:45 AM61 °FPartly cloudy.No wind72%30.27 "Hg7 mi
12:45 AM68 °FPartly cloudy.8 mph53%29.75 "Hg7 mi
11:45 PM
Wed, Jul 29
70 °FPartly cloudy.12 mph50%30.32 "Hg7 mi
10:45 PM72 °FPartly cloudy.6 mph36%30.30 "Hg7 mi
9:45 PM70 °FPartly cloudy.7 mph40%29.83 "Hg7 mi
8:45 PM73 °FBroken clouds.6 mph36%30.23 "Hg7 mi
7:48 PM75 °FPartly sunny.6 mph34%30.19 "Hg7 mi
6:52 PM81 °FBroken clouds.15 mph30%29.83 "Hg12 mi
5:45 PM82 °FBroken clouds.16 mph23%30.15 "Hg12 mi
4:48 PM84 °FPartly sunny.14 mph27%30.15 "Hg12 mi
3:45 PM84 °FPartly sunny.9 mph27%29.69 "Hg12 mi
Weather by CustomWeather, © 2015

See weather overviewHow to use our weather pages